Theta_e
322 322 324 327 331 334 336 343 341 343 347 346 351 346 359 358 359 360 357 354 350 346 343 346 347 345 342 342 344 346 348 349 350 350 349 350 352 352 353 353 353 350 351 350
322 323 323 327 333 335 336 340 342 336 332 333 334 337 344 356 356 359 359 357 352 349 347 348 348 348 346 343 343 346 347 350 352 351 350 350 351 352 350 353 354 353 351 351
323 324 324 330 336 334 334 338 337 337 332 338 338 341 349 352 354 356 357 356 354 352 348 350 350 349 348 347 343 345 347 349 352 351 353 355 354 354 351 354 353 353 353 351
323 324 326 329 334 333 334 334 336 334 334 339 336 341 342 354 355 357 359 357 355 353 350 349 350 350 349 348 344 344 348 349 352 353 352 353 351 351 350 352 353 354 355 354
326 324 328 331 334 334 334 333 333 335 335 333 334 335 343 343 353 357 357 358 355 353 352 350 349 349 348 348 348 345 348 350 350 352 354 353 353 349 351 351 353 354 355 355
328 325 327 332 333 333 332 333 333 332 334 334 333 333 340 343 343 342 344 356 357 354 353 351 348 348 348 349 349 348 348 351 352 353 354 354 353 351 349 352 351 351 353 354
325 327 325 326 334 334 332 332 333 333 332 332 333 333 343 340 343 345 338 347 356 355 353 353 352 350 349 349 350 350 349 353 353 353 353 354 355 354 353 353 349 351 352 352
325 325 324 322 329 333 334 331 331 333 332 331 331 333 342 339 342 343 346 348 350 354 353 353 352 350 350 350 350 350 350 353 354 353 354 354 355 353 352 350 349 351 350 352
324 322 318 318 320 323 333 333 329 329 330 331 331 338 335 336 341 345 347 349 349 350 353 353 352 351 350 349 350 351 351 352 354 353 354 355 355 355 351 349 350 350 351 352
322 322 319 318 319 320 326 330 329 328 332 332 331 337 337 337 343 343 344 347 350 351 350 349 350 351 351 350 350 351 352 353 354 353 353 354 354 355 354 352 351 349 349 351
320 323 320 320 322 323 323 327 327 327 329 331 332 333 328 336 342 342 343 346 351 351 352 350 344 346 350 351 350 349 351 353 354 354 353 353 353 354 354 353 352 351 351 352
319 322 322 322 318 318 321 325 327 329 331 330 332 330 329 334 339 339 342 347 343 344 343 346 349 347 346 349 350 349 350 351 352 353 354 354 354 353 353 353 350 350 351 352
319 321 323 321 320 320 322 321 322 324 327 330 329 331 331 334 338 338 340 342 339 337 339 339 338 339 347 350 352 350 348 350 351 352 353 354 354 354 353 352 352 351 351 351
319 320 322 322 323 322 322 320 320 322 327 329 329 332 332 332 334 336 337 338 336 334 332 335 335 332 334 339 343 351 349 349 350 351 352 352 354 354 354 353 353 352 352 351
319 323 321 320 319 319 319 319 318 321 324 327 328 330 331 330 330 331 333 334 332 330 330 329 331 332 330 328 333 340 351 348 349 350 351 351 353 353 354 354 353 353 353 352
318 321 320 319 317 317 318 317 317 316 317 322 323 327 325 325 324 325 327 328 328 326 325 326 327 325 331 329 328 329 337 350 349 350 350 351 352 353 354 354 354 353 353 353
318 319 320 319 315 315 315 317 316 316 318 319 321 325 322 323 322 321 323 324 324 323 321 321 322 322 323 330 328 326 327 337 349 349 351 351 352 352 353 353 354 354 354 353
317 318 317 318 316 315 319 318 317 316 321 320 322 320 319 320 319 320 320 320 320 319 319 319 317 317 318 321 328 328 327 327 334 343 350 351 351 351 352 352 353 353 353 353
316 316 317 318 316 316 315 315 317 317 321 319 320 319 318 318 319 322 319 316 316 316 315 315 315 315 316 316 317 327 327 327 329 329 332 338 348 351 352 352 352 352 352 352
314 316 319 316 317 316 319 315 315 316 320 317 317 317 316 316 318 325 316 314 313 313 313 313 313 314 315 316 315 317 326 326 327 326 326 330 334 340 348 351 353 353 353 352
320 319 320 320 320 318 317 314 315 317 322 315 313 313 313 315 315 313 312 312 312 312 312 312 312 313 314 315 316 317 319 324 325 324 325 325 331 335 339 344 344 349 353 353
321 324 322 321 321 321 317 314 317 317 313 312 312 312 312 312 312 312 312 312 311 311 311 311 312 312 313 314 315 317 318 321 323 324 324 324 324 328 334 341 346 348 348 352
321 318 322 320 320 318 315 314 313 312 312 311 311 310 310 311 311 311 311 311 310 310 310 310 311 311 312 313 315 316 318 321 323 323 323 323 323 324 329 335 339 342 344 349
315 315 319 316 314 315 314 311 311 310 311 310 310 309 309 310 310 310 311 309 308 308 309 310 310 311 312 313 314 316 316 319 322 321 322 321 319 320 322 327 331 335 338 339
317 315 317 316 315 313 313 313 312 311 310 310 309 309 310 310 310 309 309 307 307 307 308 310 309 309 310 311 313 315 317 317 321 321 320 320 319 318 319 321 325 328 333 335
314 316 319 321 315 314 314 313 312 312 311 310 310 310 309 308 309 308 307 307 307 307 306 307 307 308 308 311 313 315 316 318 319 320 320 319 318 318 318 318 321 324 327 328
Wind_Speed
15 11 16 17 16 10 13 14 12 9 8 6 8 4 15 11 15 15 15 17 19 19 20 21 19 17 17 17 17 17 16 15 15 14 14 12 10 8 7 7 6 5 5 5
11 17 14 13 8 8 12 13 13 8 6 5 8 8 8 13 11 15 16 17 19 19 20 21 20 18 17 18 18 18 17 16 16 14 13 10 9 8 7 7 7 7 6 7
15 11 11 14 14 13 13 15 13 12 8 4 5 9 10 8 12 11 14 16 18 20 22 20 21 20 18 17 19 20 19 17 17 14 12 9 8 7 8 8 7 7 9 8
10 7 16 18 17 15 14 9 7 8 11 9 9 7 10 11 10 11 14 16 17 19 20 20 24 22 20 19 18 18 19 19 18 16 13 12 11 10 9 9 8 8 8 9
11 16 17 19 16 15 4 12 12 11 11 4 12 9 9 9 10 10 13 15 15 18 19 20 24 25 23 21 20 21 20 19 19 18 16 13 12 10 8 10 8 8 8 7
4 8 14 15 11 13 9 10 8 8 10 11 11 15 9 6 5 3 6 15 17 16 18 19 23 25 24 23 22 22 22 23 21 20 18 16 12 11 9 10 10 10 9 7
8 11 4 5 15 14 14 15 9 11 9 9 14 11 10 8 9 9 4 6 17 16 16 17 17 22 23 23 22 22 23 23 24 23 21 20 17 14 12 10 10 11 11 9
13 11 9 4 12 13 21 19 9 12 13 12 9 9 7 9 10 10 12 9 4 15 13 15 16 20 23 23 23 23 24 25 24 24 24 21 20 18 15 13 12 12 14 11
10 8 6 3 2 6 20 17 7 4 6 10 12 11 12 9 11 13 13 13 11 6 8 14 16 19 20 22 24 25 25 25 25 25 23 22 21 21 17 15 13 14 11 8
2 10 1 5 4 1 7 14 10 9 13 12 13 14 10 7 9 13 14 15 13 11 7 3 9 19 22 23 23 24 25 26 26 27 24 23 24 22 21 18 18 16 14 14
2 6 8 7 2 2 6 11 10 10 5 13 9 8 6 6 8 11 14 14 17 16 13 10 8 12 16 21 21 23 24 25 24 25 26 24 24 24 21 21 20 19 18 16
4 4 8 9 5 1 3 5 9 10 12 7 6 8 5 6 9 11 13 17 16 17 16 18 22 16 2 9 17 20 21 22 25 24 24 25 24 23 23 22 22 19 20 19
4 4 8 8 8 5 3 1 4 8 9 15 10 8 8 8 9 11 12 14 14 17 18 17 21 22 20 19 14 12 17 20 21 22 23 23 23 24 25 24 22 21 20 21
5 1 5 3 3 3 7 3 1 8 11 10 6 19 13 10 10 10 10 13 14 15 17 18 18 23 23 21 22 13 11 15 17 19 20 22 24 25 25 24 23 23 22 21
4 3 1 6 6 4 1 3 2 1 5 7 18 17 12 7 9 9 9 11 13 15 17 17 17 21 24 27 25 22 14 12 14 15 18 20 20 21 23 23 23 24 23 23
3 4 5 2 1 1 5 4 3 3 2 3 8 14 7 7 8 8 9 10 12 14 15 15 16 20 24 24 23 25 22 18 10 14 16 16 17 19 20 21 22 24 24 24
1 6 7 7 2 4 8 12 7 4 3 2 8 12 4 7 5 5 6 9 11 12 13 14 15 18 20 22 22 25 27 20 16 11 12 14 15 17 19 20 21 22 24 24
5 5 3 4 6 8 7 4 1 4 7 4 8 7 5 4 4 5 8 8 10 12 13 14 17 19 19 19 21 22 24 26 20 18 11 9 11 13 16 17 20 21 22 23
3 5 4 5 11 4 7 6 6 12 9 3 6 4 3 6 6 10 7 9 9 10 14 16 17 19 19 18 20 21 20 21 21 22 17 17 13 12 15 15 16 19 20 21
4 4 5 6 6 5 10 7 4 3 6 6 3 3 3 5 5 10 9 12 13 13 14 16 20 19 17 18 19 19 18 18 19 20 22 19 15 14 14 15 16 18 19 21
6 5 8 7 6 2 8 8 5 7 6 6 3 3 4 4 5 12 14 14 15 16 16 17 17 18 17 18 19 17 17 16 17 18 19 21 21 17 14 13 15 18 19 20
7 5 5 6 6 7 12 9 4 7 6 4 3 3 3 4 6 8 10 13 16 16 18 18 18 18 18 17 18 19 17 17 17 17 17 18 20 19 16 15 13 13 18 20
4 4 2 4 2 6 13 4 7 4 4 4 1 1 2 6 7 9 11 14 16 17 18 19 18 20 20 19 17 20 19 17 16 16 16 17 18 17 17 16 16 14 11 14
5 4 3 2 10 9 9 5 5 5 5 3 2 2 5 8 10 12 12 14 16 18 20 20 20 19 22 22 21 20 21 19 16 15 15 15 17 18 17 17 16 15 11 11
3 8 7 7 4 5 10 8 9 8 4 2 1 3 5 9 10 12 11 14 16 16 20 19 17 19 24 25 25 23 21 19 20 17 14 15 16 15 18 18 17 19 19 16
8 9 6 4 5 8 3 12 11 9 7 3 2 4 5 6 10 12 12 14 13 16 16 18 17 17 19 24 24 23 21 19 20 19 18 14 15 17 18 19 22 20 22 25
Wind_Direction
191 198 204 196 210 299 179 204 185 155 137 188 172 140 150 170 173 170 191 186 184 182 178 177 181 180 182 183 184 186 183 183 181 178 179 180 188 209 204 205 189 182 148 152
174 218 196 193 187 201 206 191 166 141 147 245 148 137 124 169 197 174 187 191 190 182 180 183 186 182 187 187 187 187 192 189 191 188 188 192 200 198 211 211 192 180 180 163
200 193 169 193 186 197 202 199 157 174 157 188 194 170 159 170 192 179 192 191 190 191 190 188 191 193 191 188 191 190 191 195 195 200 193 193 193 191 184 192 190 185 174 183
223 147 186 195 195 207 185 224 164 173 195 193 218 189 163 149 169 189 188 193 190 192 195 191 192 194 196 196 194 193 193 194 199 204 208 210 201 200 193 183 188 183 180 173
187 197 194 197 199 201 189 173 204 203 214 158 190 255 105 153 139 168 197 200 204 191 193 192 193 192 199 200 195 196 197 198 202 206 214 215 220 206 198 202 176 187 190 188
114 200 197 201 188 200 126 171 178 193 210 217 185 224 94 65 16 344 236 195 208 203 195 197 196 190 200 204 205 201 198 201 204 208 214 217 222 224 219 209 192 199 196 193
164 166 130 262 191 200 196 176 167 190 201 222 171 220 68 68 43 21 103 188 193 209 201 195 198 199 200 204 207 207 205 207 204 209 215 217 220 223 222 225 217 201 220 197
176 173 182 198 230 190 205 203 191 190 193 184 155 210 103 74 61 56 60 55 173 190 203 205 203 208 205 206 207 209 207 212 211 214 215 218 219 221 230 224 237 208 215 202
190 114 132 87 234 268 194 220 283 264 233 192 167 85 103 87 69 65 68 72 65 39 200 199 212 215 216 212 212 211 210 212 212 215 219 217 220 221 224 232 221 228 238 219
108 135 167 113 195 154 279 205 200 236 181 204 164 173 106 83 62 65 55 54 53 67 59 333 262 219 220 221 219 218 219 218 215 213 216 219 220 221 222 225 230 227 231 234
279 251 139 186 321 137 173 201 232 246 269 218 153 152 85 77 54 60 57 53 46 23 33 38 355 251 234 222 223 219 220 223 221 219 217 217 218 220 220 220 227 232 226 226
29 281 166 106 121 303 285 323 253 223 199 258 275 103 98 90 71 61 58 62 43 39 31 21 23 30 275 235 231 227 224 222 224 224 220 220 220 215 217 220 222 225 226 222
358 180 164 171 172 175 213 145 265 267 283 218 240 121 138 116 84 60 52 59 50 40 32 37 37 28 18 9 349 233 229 227 225 220 221 223 222 220 221 220 220 219 223 224
266 104 306 239 86 70 172 157 341 267 237 223 228 129 130 106 87 66 54 53 48 43 35 24 34 30 25 16 4 334 246 238 228 224 221 224 225 223 224 228 223 220 216 222
347 149 103 64 62 61 107 164 84 264 348 276 129 130 114 92 77 55 48 56 44 37 32 28 19 22 25 21 12 2 337 261 242 236 234 226 227 229 229 228 227 225 221 221
335 146 159 133 24 299 246 218 175 168 143 97 122 112 112 115 82 50 41 36 39 31 24 19 23 19 9 19 15 5 354 343 264 240 242 244 235 232 229 228 228 226 225 225
219 162 197 194 207 241 240 219 209 151 123 304 194 91 127 94 66 46 59 43 31 22 18 9 7 12 10 3 11 8 358 352 341 269 249 247 243 240 237 235 231 229 227 227
161 179 209 140 186 220 76 84 140 196 96 120 112 97 77 29 5 102 88 47 21 6 359 358 354 354 357 357 359 360 1 3 360 357 324 284 266 252 249 243 238 237 235 231
268 187 167 202 210 73 176 187 189 185 150 147 135 121 44 356 305 142 104 27 3 351 341 339 339 338 339 346 349 350 358 4 7 2 354 350 312 281 257 254 250 247 241 239
184 278 242 198 226 232 85 132 141 188 172 127 134 97 23 334 257 102 4 342 336 334 332 330 328 325 330 336 340 341 343 352 354 351 343 344 336 321 288 274 259 248 242 242
178 202 213 210 237 125 121 140 157 214 92 116 70 22 351 331 346 326 329 328 322 318 318 321 316 315 318 323 327 325 325 332 340 338 336 337 338 335 314 294 273 265 256 247
192 196 206 221 225 220 149 150 230 96 123 108 97 45 356 340 328 332 335 333 328 322 318 315 311 309 310 313 314 310 308 313 321 329 329 329 328 325 314 308 298 281 262 260
227 233 256 227 59 113 168 67 118 134 126 121 108 78 322 310 319 329 331 336 334 329 321 312 307 305 304 305 303 300 300 303 306 313 319 320 320 319 313 305 301 294 285 268
222 215 237 263 172 162 161 151 155 156 126 129 95 1 331 324 329 325 333 336 329 329 325 317 307 300 303 302 296 290 291 293 288 296 303 312 314 312 312 301 293 286 286 289
213 167 213 246 209 200 208 202 176 170 165 157 28 340 334 329 322 318 325 324 323 328 327 322 325 320 307 297 290 285 284 285 276 278 287 296 301 306 306 295 286 285 281 289
198 206 194 216 200 211 128 184 170 180 190 195 292 302 312 316 316 326 312 312 315 319 326 333 328 319 313 313 284 280 280 274 269 271 274 274 291 297 298 297 298 289 283 294